Weather History for Sauk Centre, MN

Change the Weather History Date:

Tuesday, January 8, 2013

  Actual Average (KGHW) Record (KGHW)
Temperature  
Mean Temperature 16 °F -  
Max Temperature 32 °F 16 °F 48 °F (1963)
Min Temperature 1 °F -3 °F -24 °F (1967)
Degree Days  
Heating Degree Days 48    
Moisture  
Dew Point 17 °F    
Average Humidity 88    
Maximum Humidity 100    
Minimum Humidity 74    
Precipitation  
Precipitation 0.00 in - - ()
Sea Level Pressure  
Sea Level Pressure 29.81 in    
Wind  
Wind Speed 4 mph (South)    
Max Wind Speed 18 mph    
Max Gust Speed 22 mph    
Visibility 9 miles    
Events Fog , Snow    
Averages and records for this station are not official NWS values.
T = Trace of Precipitation, MM = Missing Value Source: NWS Daily Summary

Daily Weather History Graph

Daily Weather History Graph

Search for Another Location

Airport:

Trip Planner

Search our weather history database for the weather conditions in past years. The results will help you decide how hot, cold, wet, or windy it might be!

Date:

Astronomy

Jan. 08, 2013 Rise Set
Actual Time 7:59 AM CST 4:53 PM CST
Civil Twilight 7:25 AM CST 5:27 PM CST
Nautical Twilight 6:48 AM CST 6:04 PM CST
Astronomical Twilight 6:12 AM CST 6:40 PM CST
Moon 4:32 AM CST (1/8) 1:57 PM CST (1/8)
Length of Visible Light 10h 01m
Length of Day
8h 54m
Waning Crescent, 13% of the Moon is Illuminated
Jan 8
Waning Crescent
Jan 11
New
Jan 18
First Quarter
Jan 26
Full
Feb 3
Last Quarter

Hourly Weather History & Observations

Time (CST) Temp. Windchill Dew Point Humidity Pressure Visibility Wind Dir Wind Speed Gust Speed Precip Events Conditions
12:15 AM 12.2 °F - 12.2 °F 100% 29.92 in 5.0 mi Calm Calm - N/A   Clear
12:35 AM 14.0 °F - 12.2 °F 93% 29.92 in 7.0 mi Calm Calm - N/A   Clear
12:55 AM 12.2 °F - 10.4 °F 92% 29.91 in 1.8 mi Calm Calm - N/A   Mist
1:15 AM 12.2 °F - 12.2 °F 100% 29.91 in 1.5 mi Calm Calm - N/A   Mist
1:35 AM 12.2 °F - 10.4 °F 92% 29.91 in 1.8 mi Calm Calm - N/A   Mist
1:55 AM 8.6 °F - 6.8 °F 92% 29.91 in 0.2 mi Calm Calm - N/A Fog Light Freezing Fog
2:15 AM 5.0 °F - 3.2 °F 92% 29.91 in 0.2 mi Calm Calm - N/A Fog Light Freezing Fog
2:35 AM 8.6 °F - 5.0 °F 85% 29.91 in 1.0 mi Calm Calm - N/A   Mostly Cloudy
2:55 AM 10.4 °F 2.2 °F 8.6 °F 92% 29.91 in 4.0 mi ENE 4.6 mph - N/A   Clear
3:15 AM 5.0 °F - 3.2 °F 92% 29.91 in 10.0 mi Calm Calm - N/A   Clear
3:35 AM 5.0 °F - 1.4 °F 85% 29.91 in 10.0 mi Calm Calm - N/A   Clear
3:55 AM 3.2 °F - 1.4 °F 92% 29.90 in 10.0 mi Calm Calm - N/A   Clear
4:15 AM 5.0 °F - 1.4 °F 85% 29.89 in 5.0 mi Calm Calm - N/A   Scattered Clouds
4:35 AM 3.2 °F - -0.4 °F 85% 29.89 in 1.0 mi Calm Calm - N/A   Mostly Cloudy
4:55 AM 1.4 °F - -2.2 °F 85% 29.88 in 10.0 mi Calm Calm - N/A   Scattered Clouds
5:15 AM 3.2 °F - -0.4 °F 85% 29.88 in 10.0 mi Calm Calm - N/A   Scattered Clouds
5:35 AM 5.0 °F - 3.2 °F 92% 29.88 in 10.0 mi Calm Calm - N/A   Mostly Cloudy
5:55 AM 3.2 °F - 1.4 °F 92% 29.87 in 10.0 mi Calm Calm - N/A   Scattered Clouds
6:15 AM 3.2 °F - -0.4 °F 85% 29.88 in 10.0 mi Calm Calm - N/A   Clear
6:55 AM 5.0 °F - 3.2 °F 92% 29.88 in 10.0 mi Calm Calm - N/A   Clear
7:15 AM 8.6 °F - 5.0 °F 85% 29.87 in 10.0 mi Calm Calm - N/A   Clear
7:35 AM 12.2 °F 6.1 °F 12.2 °F 100% 29.86 in 10.0 mi East 3.5 mph - N/A   Clear
7:55 AM 14.0 °F 6.5 °F 10.4 °F 86% 29.87 in 10.0 mi ESE 4.6 mph - N/A   Scattered Clouds
8:15 AM 14.0 °F 5.1 °F 12.2 °F 93% 29.87 in 10.0 mi ESE 5.8 mph - N/A   Mostly Cloudy
8:35 AM 17.6 °F 10.7 °F 15.8 °F 93% 29.86 in 10.0 mi ESE 4.6 mph - N/A   Overcast
8:55 AM 17.6 °F - 17.6 °F 100% 29.86 in 10.0 mi Calm Calm - N/A   Overcast
9:15 AM 19.4 °F 14.3 °F 19.4 °F 100% 29.86 in 10.0 mi ESE 3.5 mph - N/A   Scattered Clouds
9:35 AM 21.2 °F 16.4 °F 19.4 °F 93% 29.86 in 10.0 mi East 3.5 mph - N/A   Clear
9:55 AM 21.2 °F 16.4 °F 21.2 °F 100% 29.85 in 10.0 mi ESE 3.5 mph - N/A   Clear
10:15 AM 23.0 °F 13.9 °F 21.2 °F 93% 29.85 in 10.0 mi SE 8.1 mph - N/A   Clear
10:35 AM 23.0 °F 17.0 °F 21.2 °F 93% 29.84 in 10.0 mi SE 4.6 mph - N/A   Scattered Clouds
10:55 AM 23.0 °F 17.0 °F 23.0 °F 100% 29.83 in 10.0 mi SE 4.6 mph - N/A   Mostly Cloudy
11:15 AM 24.8 °F 19.1 °F 21.2 °F 86% 29.82 in 10.0 mi East 4.6 mph - N/A   Scattered Clouds
11:35 AM 26.6 °F 20.0 °F 21.2 °F 80% 29.80 in 10.0 mi ESE 5.8 mph - N/A   Mostly Cloudy
11:55 AM 26.6 °F 19.1 °F 21.2 °F 80% 29.77 in 10.0 mi ESE 6.9 mph - N/A   Mostly Cloudy
12:15 PM 28.4 °F 19.1 °F 21.2 °F 74% 29.75 in 10.0 mi ESE 10.4 mph - N/A   Mostly Cloudy
12:35 PM 28.4 °F 18.0 °F 21.2 °F 74% 29.74 in 10.0 mi ESE 12.7 mph - N/A   Mostly Cloudy
12:55 PM 28.4 °F 18.5 °F 23.0 °F 80% 29.71 in 10.0 mi ESE 11.5 mph - N/A   Mostly Cloudy
1:15 PM 28.4 °F 18.5 °F 23.0 °F 80% 29.68 in 10.0 mi East 11.5 mph - N/A   Mostly Cloudy
1:55 PM 30.2 °F 21.3 °F 24.8 °F 80% 29.72 in 10.0 mi South 10.4 mph - N/A   Scattered Clouds
2:15 PM 30.2 °F 21.9 °F 24.8 °F 80% 29.70 in 10.0 mi SSE 9.2 mph - N/A   Scattered Clouds
2:35 PM 30.2 °F 21.9 °F 24.8 °F 80% 29.70 in 10.0 mi SE 9.2 mph - N/A   Scattered Clouds
2:55 PM 30.2 °F 21.9 °F 24.8 °F 80% 29.70 in 10.0 mi SE 9.2 mph - N/A   Scattered Clouds
3:15 PM 30.2 °F 22.6 °F 24.8 °F 80% 29.69 in 10.0 mi SSE 8.1 mph - N/A   Mostly Cloudy
3:35 PM 28.4 °F 18.0 °F 24.8 °F 86% 29.69 in 10.0 mi SSE 12.7 mph - N/A   Scattered Clouds
3:55 PM 28.4 °F 17.5 °F 23.0 °F 80% 29.70 in 10.0 mi South 13.8 mph - N/A   Clear
4:15 PM 26.6 °F 15.7 °F 23.0 °F 86% 29.70 in 10.0 mi South 12.7 mph - N/A   Clear
4:35 PM 26.6 °F 16.8 °F 23.0 °F 86% 29.71 in 10.0 mi South 10.4 mph - N/A   Scattered Clouds
4:55 PM 24.8 °F 16.1 °F 21.2 °F 86% 29.71 in 7.0 mi South 8.1 mph - N/A   Overcast
5:15 PM 23.0 °F 15.8 °F 21.2 °F 93% 29.71 in 7.0 mi SSW 5.8 mph - N/A   Overcast
5:35 PM 23.0 °F 17.0 °F 21.2 °F 93% 29.71 in 10.0 mi South 4.6 mph - N/A   Mostly Cloudy
5:55 PM 23.0 °F 15.8 °F 21.2 °F 93% 29.71 in 7.0 mi SSW 5.8 mph - N/A   Mostly Cloudy
6:15 PM 23.0 °F 14.7 °F 21.2 °F 93% 29.72 in 7.0 mi SSW 6.9 mph - N/A   Mostly Cloudy
6:35 PM 24.8 °F 16.9 °F 23.0 °F 93% 29.73 in 7.0 mi SW 6.9 mph - N/A   Overcast
6:55 PM 26.6 °F 18.2 °F 23.0 °F 86% 29.73 in 10.0 mi WSW 8.1 mph - N/A   Overcast
7:15 PM 26.6 °F 18.2 °F 24.8 °F 93% 29.73 in 10.0 mi WSW 8.1 mph - N/A   Overcast
7:55 PM 28.4 °F 19.1 °F 26.6 °F 93% 29.75 in 10.0 mi West 10.4 mph - N/A   Overcast
8:15 PM 28.4 °F 19.7 °F 24.8 °F 86% 29.76 in 10.0 mi West 9.2 mph - N/A   Overcast
8:35 PM 26.6 °F 17.5 °F 23.0 °F 86% 29.76 in 10.0 mi West 9.2 mph - N/A   Scattered Clouds
8:55 PM 26.6 °F 16.8 °F 23.0 °F 86% 29.76 in 10.0 mi West 10.4 mph - N/A   Clear
9:15 PM 24.8 °F 14.6 °F 23.0 °F 93% 29.77 in 10.0 mi West 10.4 mph - N/A   Clear
9:35 PM 26.6 °F 15.2 °F 23.0 °F 86% 29.78 in 10.0 mi WSW 13.8 mph - N/A   Clear
9:55 PM 26.6 °F 15.2 °F 23.0 °F 86% 29.78 in 10.0 mi West 13.8 mph - N/A   Scattered Clouds
10:15 PM 28.4 °F 15.8 °F 24.8 °F 86% 29.80 in 10.0 mi West 18.4 mph - N/A   Scattered Clouds
10:35 PM 28.4 °F 17.5 °F 24.8 °F 86% 29.81 in 10.0 mi West 13.8 mph - N/A   Clear
10:55 PM 28.4 °F 17.5 °F 24.8 °F 86% 29.82 in 10.0 mi West 13.8 mph - N/A   Scattered Clouds
11:35 PM 32.0 °F 21.6 °F 26.6 °F 80% 29.86 in 10.0 mi West 15.0 mph 21.9 mph N/A   Overcast
11:55 PM 32.0 °F 22.1 °F 28.4 °F 87% 29.85 in 10.0 mi West 13.8 mph 18.4 mph N/A Snow Light Snow